STARLINK-31045, 58541

Orbit data source: Space-Track

STARLINK-31045, 58541 is a payload satellite owned by SpaceX/Seattle (US) in LEO that was launched on Fri, 08 Dec 2023 UTC via an FALCON 9 launch vehicle from the Air Force Western Test Range (AFWTR). Payload-class satellites include a variety of spacecraft equipped with specific instruments for various scientific and technological missions. These include communications satellites like Starlink; space stations such as the ISS; scientific satellites like the Hubble; Earth observation satellites from companies like Planet Labs, Umbra, and HawkEye 360; GPS; miniature CubeSats for education and research; and military/defense satellites.

Loading next visibility...
Identifier
58541, 2023-192L
Orbit
LEO
Country
Flag of USUS
Related business
Manufacturer
SpaceX/Seattle
Mission
Operational Commercial Communications
Bus & Motor
STARLINK V2M, Unknown motor
Mass
730 kg wet, ~700 kg dry
Launch date (UTC)
2023-12-08 (3 years ago)
Launch vehicle
FALCON 9
Launch site
Air Force Western Test Range (AFWTR)
Object type
Payload
Rocket body
Debris
Shape & HBR
Box + 2 Pan, 17.7 m
Radar Cross Section
33.884 m², Large (>1 m²)

Expand to show TLE details & history
Last TLE update: 3 days ago

TLE from 3 days ago
0 STARLINK-31045
1 58541U 23192L   26170.77626823 -.00001565  00000-0 -40722-4 0  9995
2 58541  53.1623  25.3991 0001086 137.1938 222.9147 15.30195710140522
Epoch: 2026-06-19T18:37Z
TLE epoch observation values (Epoch: 2026-06-19T18:37:49.575Z)
Latitude
-0.00004°
Longitude
-162.05788°
Altitude
476.673 km
Speed
7.628 km/s
True Right ascension
01h 41m 35s
True Declination
0° 00' 00"
Sunlit
Object was in daylight at epoch
Visualization orbit readout
Latitude
Unknown
Longitude
Unknown
Altitude
Unknown
Speed
Unknown
Apparent Right ascension
Unknown
Apparent Declination
Unknown
Sunlit
N/A
Visualization observer readout
Local Sidereal Time
21:32:09
Azimuth
Unknown
Elevation
Unknown
Doppler factor
Unknown
Orbital elements
Apogee altitude
476.228 km
Perigee altitude
474.74 km
Semi-major axis
6,853.621 km
Eccentricity
0.00011
Inclination
53.1623°
RAAN
25.3991°
Arg. of periapsis
137.1938°
True anomaly
222.90623°
Mean anomaly
222.9147°
Eccentric anomaly
222.91046°
Mean motion
3.82528 °/min
Orbital period
94.11 mins
BSTAR
-0.000040722
Loading maneuver chart data...
Computing Atmospheric mass density...
Loading historical data...
Loading historical data...
Loading historical data...
Loading historical data...
Loading historical data...
Loading historical data...
Loading historical data...

Documentation

Showing up to 5 results
|